DW8397 Weather Reports


time (UTC)temp
C
wind
direction
speed
KPH
gust
KPH
rain 1hr
cm
rain 24hr
cm
rain mn
cm
humidity
%
barometer
mb
20260901054508 17 317 0.0 0.0 0.00 0.00 0.00 88 1016.2
20260901053001 17 317 0.0 0.0 0.00 0.00 0.00 88 1016.2
20260901051611 17 317 0.0 0.0 0.00 0.00 0.00 88 1016.3
20260901050059 17 317 0.0 0.0 0.00 0.00 0.00 88 1016.4
20260901044608 17 317 0.0 0.0 0.00 0.00 0.00 88 1016.5
20260901043057 17 317 0.0 0.0 0.00 0.00 0.00 88 1016.3
20260901041555 17 317 0.0 0.0 0.00 0.00 0.00 87 1016.3
20260901040109 17 317 0.0 0.0 0.00 0.00 0.00 87 1016.2
20260901034607 17 317 0.0 0.0 0.00 0.00 0.00 87 1016.2
20260901033051 17 317 0.0 0.0 0.00 0.00 0.00 87 1016.5
20260901031551 17 317 0.0 0.0 0.00 0.00 0.00 87 1016.5
20260901030049 17 317 0.0 0.0 0.00 0.00 0.00 87 1016.5
20260901024553 17 317 0.0 0.0 0.00 0.00 0.00 86 1016.7
20260901023100 17 317 0.0 0.0 0.00 0.00 0.00 86 1016.6
20260901021554 17 317 0.0 0.0 0.00 0.00 0.00 85 1016.6
20260901020048 17 317 0.0 0.0 0.00 0.00 0.00 85 1016.6
20260901014553 17 317 0.0 0.0 0.00 0.00 0.00 85 1016.6
20260901013047 17 317 0.0 0.0 0.00 0.00 0.00 84 1016.6
20260901011547 17 317 0.0 0.0 0.00 0.00 0.00 84 1016.5
20260901010046 18 317 0.0 0.0 0.00 0.00 0.00 84 1016.6
20260901004645 18 317 0.0 0.0 0.00 0.00 0.00 83 1016.5
20260901003045 18 317 0.0 0.0 0.00 0.00 0.00 82 1016.6
20260901001644 18 317 0.0 0.0 0.00 0.00 0.00 81 1016.5
20260901000045 18 317 0.0 0.0 0.00 0.00 0.00 80 1016.4
20260831234545 19 317 0.0 0.0 0.00 0.00 0.00 79 1016.4
20260831233042 20 317 0.0 0.0 0.00 0.00 0.00 80 1016.4
20260831231542 20 317 0.0 0.0 0.00 0.00 0.00 78 1016.6
20260831230041 21 317 0.0 0.0 0.00 0.00 0.00 75 1016.8
20260831224538 21 317 0.0 0.0 0.00 0.00 0.00 73 1017.0
20260831223040 21 317 0.0 0.0 0.00 0.00 0.00 71 1017.0
20260831221538 22 317 0.0 0.0 0.00 0.00 0.00 66 1017.1
20260831220036 22 278 0.0 0.0 0.00 0.00 0.00 67 1016.9
20260831214538 22 278 0.0 0.0 0.00 0.00 0.00 64 1016.9
20260831213035 22 184 0.0 0.0 0.00 0.00 0.00 64 1016.9
20260831211536 22 300 0.0 9.7 0.00 0.00 0.00 62 1016.9
20260831210034 22 219 0.0 0.0 0.00 0.00 0.00 61 1016.9
20260831204533 22 262 0.0 4.8 0.00 0.00 0.00 58 1016.9
20260831203031 23 214 0.0 8.0 0.00 0.00 0.00 59 1017.0
20260831201531 23 346 1.6 17.7 0.00 0.00 0.00 57 1017.1
20260831200040 23 205 1.6 14.5 0.00 0.00 0.00 58 1017.2
20260831194531 23 325 3.2 11.3 0.00 0.00 0.00 53 1017.2
20260831193037 24 159 0.0 11.3 0.00 0.00 0.00 55 1017.4
20260831191534 23 308 0.0 9.7 0.00 0.00 0.00 58 1017.4
20260831190027 23 188 3.2 11.3 0.00 0.00 0.00 55 1017.5
20260831184526 23 184 0.0 4.8 0.00 0.00 0.00 59 1017.5
20260831183021 23 298 0.0 6.4 0.00 0.00 0.00 61 1017.5
20260831181522 22 245 0.0 3.2 0.00 0.00 0.00 62 1017.9
20260831180024 22 221 0.0 3.2 0.00 0.00 0.00 61 1017.9
20260831174522 22 302 0.0 0.0 0.00 0.00 0.00 63 1018.1
20260831173015 22 276 0.0 9.7 0.00 0.00 0.00 66 1018.2
20260831171515 22 183 0.0 0.0 0.00 0.00 0.00 64 1018.2
20260831170015 22 306 0.0 3.2 0.00 0.00 0.00 66 1018.3
20260831164528 22 314 0.0 0.0 0.00 0.00 0.00 68 1018.5
20260831163013 22 309 0.0 0.0 0.00 0.00 0.00 69 1018.6
20260831161512 22 184 0.0 0.0 0.00 0.00 0.00 66 1018.8
20260831160011 22 164 0.0 0.0 0.00 0.00 0.00 69 1018.9
20260831154511 22 185 0.0 0.0 0.00 0.00 0.00 69 1018.9
20260831153010 22 184 0.0 0.0 0.00 0.00 0.00 66 1019.0
20260831151512 22 211 0.0 0.0 0.00 0.00 0.00 70 1018.9
20260831150010 22 285 0.0 0.0 0.00 0.00 0.00 70 1018.8
20260831144510 21 191 0.0 0.0 0.00 0.00 0.00 70 1019.0
20260831143106 20 151 0.0 0.0 0.00 0.00 0.00 72 1019.0
20260831141607 20 171 0.0 0.0 0.00 0.00 0.00 77 1019.1
20260831140050 19 210 0.0 0.0 0.00 0.00 0.00 82 1019.1
20260831134550 18 189 0.0 0.0 0.00 0.00 0.00 88 1019.2
20260831133041 16 188 0.0 0.0 0.00 0.00 0.00 88 1019.2
20260831131537 15 188 0.0 0.0 0.00 0.00 0.00 87 1019.0
20260831130033 14 292 0.0 0.0 0.00 0.00 0.00 88 1019.1
20260831124529 13 193 0.0 0.0 0.00 0.00 0.00 88 1019.0
20260831123025 12 193 0.0 0.0 0.00 0.00 0.00 88 1019.1
20260831121524 11 195 0.0 0.0 0.00 0.00 0.00 89 1019.2
20260831120034 11 319 0.0 0.0 0.00 0.00 0.00 89 1019.1
20260831114530 11 319 0.0 0.0 0.00 0.00 0.00 89 1019.3
20260831113019 11 319 0.0 0.0 0.00 0.00 0.00 89 1019.1
20260831111518 11 319 0.0 0.0 0.00 0.00 0.00 89 1019.0
20260831110016 11 319 0.0 0.0 0.00 0.00 0.00 89 1018.9
20260831104514 11 319 0.0 0.0 0.00 0.00 0.00 89 1018.7
20260831103012 11 319 0.0 0.0 0.00 0.00 0.00 89 1018.6
20260831101510 11 319 0.0 0.0 0.00 0.00 0.00 89 1018.6
20260831100008 11 319 0.0 0.0 0.00 0.00 0.00 89 1018.5
20260831094506 12 319 0.0 0.0 0.00 0.00 0.00 89 1018.4
20260831093010 12 319 0.0 0.0 0.00 0.00 0.00 89 1018.4
20260831091507 12 319 0.0 0.0 0.00 0.00 0.00 89 1018.2
20260831090100 12 319 0.0 0.0 0.00 0.00 0.00 89 1018.1
20260831084608 13 319 0.0 0.0 0.00 0.00 0.00 89 1017.9
20260831083105 13 319 0.0 0.0 0.00 0.00 0.00 89 1017.8
20260831081554 13 321 0.0 8.0 0.00 0.00 0.00 89 1017.7
20260831080052 13 329 0.0 8.0 0.00 0.00 0.00 89 1017.6
20260831074550 13 23 0.0 0.0 0.00 0.00 0.00 89 1017.5
20260831073054 14 34 0.0 0.0 0.00 0.00 0.00 89 1017.4
20260831071546 14 34 0.0 0.0 0.00 0.00 0.00 89 1017.6
20260831070045 15 34 0.0 0.0 0.00 0.00 0.00 89 1017.4
20260831064544 15 34 0.0 0.0 0.00 0.00 0.00 89 1017.4
20260831063042 15 34 0.0 0.0 0.00 0.00 0.00 89 1017.4
20260831061541 15 12 0.0 0.0 0.00 0.00 0.00 89 1017.3
20260831060045 15 12 0.0 0.0 0.00 0.00 0.00 89 1017.5